Find TDRS 1

NORAD ID: 13969 Int'l Des: 1983-026 Owner: GSFC Country: US operational
HEOCIRCULAR

Live Position

Loading 3D Globe...

About TDRS 1

Description loading...

Upcoming Passes

Passes for default location (London). Set your location on the main map for personalized predictions.

Altitude History

Loading altitude history...

Two-Line Element Set

1 13969U 83026B 26109.53034236 -.00000188 00000-0 00000-0 0 9999
2 13969 8.7699 320.6739 0018998 270.8100 287.9902 0.98744108129787
Epoch: Apr 19, 2026 • Age: 8 hours

Current Status

Altitude 36170.6 km
Velocity 3.06 km/s
Sub-Earth Point -5.31°S, 119.51°E
Launch Date Apr 4, 1983
Age 43 years
Type other

Technical Details

Classification Payload
Mass 2263.00 kg
Dry Mass 1673.00 kg
Total Mass 2263.00 kg
Length 1.30 m
Diameter 2.40 m
Span 17.40 m
Shape Box + Dish + 2 Pan
Manufacturer TRW
Bus Type TDRS
Phase Status In Orbit
Owner/State GSFC/US

Most Searched